TimeEST,TemperatureF,Dew PointF,Humidity,Sea Level PressureIn,VisibilityMPH,Wind Direction,Wind SpeedMPH,Gust SpeedMPH,PrecipitationIn,Events,Conditions,WindDirDegrees,DateUTC
12:54 AM,43.0,37.9,82,30.17,5.0,SE,16.1,-,0.11,Rain,Rain,130,2011-11-23 05:54:00
1:54 AM,42.1,37.0,82,30.11,5.0,East,19.6,-,0.12,Rain,Rain,90,2011-11-23 06:54:00
2:54 AM,43.0,39.0,86,30.02,4.0,East,23.0,29.9,0.17,Rain,Rain,90,2011-11-23 07:54:00
3:54 AM,43.0,39.9,89,29.96,2.5,East,24.2,32.2,0.18,Rain,Heavy Rain,90,2011-11-23 08:54:00
4:07 AM,44.6,41.0,87,29.95,3.0,East,20.7,32.2,0.05,Rain,Rain,80,2011-11-23 09:07:00
4:52 AM,44.6,42.8,93,29.91,2.5,East,21.9,32.2,0.22,Rain,Heavy Rain,80,2011-11-23 09:52:00
4:54 AM,44.1,42.1,93,29.91,2.5,East,25.3,32.2,0.23,Rain,Heavy Rain,80,2011-11-23 09:54:00
5:54 AM,45.0,43.0,93,29.84,2.5,East,25.3,-,0.20,Rain,Rain,80,2011-11-23 10:54:00
5:56 AM,44.6,42.8,93,29.84,3.0,East,25.3,-,0.00,Rain,Rain,80,2011-11-23 10:56:00
6:04 AM,46.4,42.8,87,29.83,3.0,East,25.3,-,0.02,Rain,Rain,80,2011-11-23 11:04:00
6:29 AM,46.4,44.6,93,29.79,3.0,East,26.5,36.8,0.07,Rain,Heavy Rain,80,2011-11-23 11:29:00
6:54 AM,46.0,44.1,93,29.74,4.0,ENE,29.9,39.1,0.12,Rain,Rain,70,2011-11-23 11:54:00
7:07 AM,46.4,44.6,93,29.74,2.0,ENE,23.0,32.2,0.07,Rain,Heavy Rain,60,2011-11-23 12:07:00
7:22 AM,46.4,44.6,93,29.74,3.0,ENE,23.0,28.8,0.12,Rain,Rain,60,2011-11-23 12:22:00
7:30 AM,46.4,44.6,93,29.72,2.0,ENE,24.2,31.1,0.15,Rain,Rain,60,2011-11-23 12:30:00
7:50 AM,46.4,44.6,93,29.70,1.8,NE,24.2,34.5,0.20,Rain,Rain,50,2011-11-23 12:50:00
7:54 AM,46.9,45.0,93,29.69,1.8,NE,24.2,32.2,0.21,Rain,Rain,50,2011-11-23 12:54:00
8:02 AM,46.4,44.6,93,29.68,2.5,NE,25.3,31.1,0.02,Rain,Rain,50,2011-11-23 13:02:00
8:09 AM,46.4,44.6,93,29.67,2.5,NE,27.6,35.7,0.03,Rain,Rain,50,2011-11-23 13:09:00
8:23 AM,46.4,44.6,93,29.67,3.0,NE,23.0,27.6,0.05,Rain,Rain,40,2011-11-23 13:23:00
8:42 AM,46.4,44.6,93,29.64,2.5,NE,24.2,32.2,0.08,Rain,Rain,40,2011-11-23 13:42:00
8:49 AM,48.2,46.4,93,29.64,2.5,NE,23.0,31.1,0.09,Rain,Rain,40,2011-11-23 13:49:00
8:54 AM,48.0,46.0,93,29.63,3.0,NE,19.6,27.6,0.10,Rain,Light Rain,40,2011-11-23 13:54:00
9:54 AM,46.9,44.1,90,29.63,5.0,NNW,16.1,21.9,0.03,,Overcast,330,2011-11-23 14:54:00
10:54 AM,46.0,43.0,89,29.60,10.0,North,21.9,28.8,0.00,,Overcast,10,2011-11-23 15:54:00
11:54 AM,45.0,42.1,90,29.61,10.0,North,16.1,32.2,N/A,,Overcast,10,2011-11-23 16:54:00
12:54 PM,42.1,39.0,89,29.61,10.0,North,21.9,27.6,N/A,,Overcast,350,2011-11-23 17:54:00
1:54 PM,39.0,35.1,86,29.65,10.0,North,16.1,25.3,N/A,,Overcast,360,2011-11-23 18:54:00
2:54 PM,37.9,33.1,83,29.69,10.0,North,19.6,27.6,0.00,,Overcast,360,2011-11-23 19:54:00
3:54 PM,37.0,32.0,82,29.74,10.0,North,18.4,26.5,N/A,,Overcast,360,2011-11-23 20:54:00
4:54 PM,37.0,32.0,82,29.77,10.0,North,17.3,25.3,N/A,,Overcast,10,2011-11-23 21:54:00
5:42 PM,37.4,30.2,75,29.80,10.0,North,18.4,28.8,N/A,,Overcast,360,2011-11-23 22:42:00
5:54 PM,37.0,30.9,79,29.80,10.0,North,20.7,27.6,N/A,,Overcast,10,2011-11-23 22:54:00
6:54 PM,37.0,30.0,76,29.82,10.0,North,17.3,23.0,N/A,,Overcast,360,2011-11-23 23:54:00
7:54 PM,36.0,28.9,76,29.86,10.0,North,19.6,26.5,N/A,,Overcast,360,2011-11-24 00:54:00
8:54 PM,36.0,28.9,76,29.89,10.0,North,13.8,-,N/A,,Overcast,360,2011-11-24 01:54:00
9:54 PM,36.0,28.0,73,29.92,10.0,North,15.0,26.5,N/A,,Overcast,10,2011-11-24 02:54:00
10:54 PM,35.1,27.0,72,29.94,10.0,North,17.3,23.0,N/A,,Overcast,360,2011-11-24 03:54:00
11:49 PM,33.8,26.6,75,29.95,10.0,North,12.7,-,N/A,,Partly Cloudy,10,2011-11-24 04:49:00
11:54 PM,34.0,27.0,75,29.95,10.0,North,11.5,-,N/A,,Partly Cloudy,10,2011-11-24 04:54:00